[[{"header":{"parameterUnit":"m.s-1","parameterCategory":1,"la1":30.2991,"la2":30.254,"lo1":-89.0895,"lo2":-89.0444,"dy":0.0017,"dx":0.0017,"nx":28,"ny":28,"refTime":"2025-11-15T03:00:00:Z","depth":0,"parameterNumber":2,"parameterNumberName":"U-component_of_WINDS"},"data":[0,0,0,0,0,0,0,0,0,0,0,0,0,0,0,0,0,0,0,0,0,0,0,0,0,0,0,0,0,0,0,0,0,0,0,0,0,0,0,0,0,0,0,0,0,0,0,0,0,0,0,0,0,0,0,0,0,0,1.1454,1.1455,0,1.1513,1.1514,1.1515,1.1494,1.1493,1.1491,1.149,1.1552,1.1555,1.1558,0,0,0,0,0,0,0,0,0,0,0,0,0,1.1323,1.1326,1.1454,1.1455,1.1455,1.1513,1.1514,1.1515,1.1494,1.1493,1.1491,1.149,1.1551,1.1555,1.1558,0,0,0,0,0,0,0,0,0,0,0,0,0,1.1381,1.1327,1.1454,1.1452,1.1453,1.1513,1.1514,1.1515,1.1495,1.1493,1.1491,1.1489,1.155,1.1554,1.1559,1.1625,0,0,1.1572,1.1574,0,0,0,0,0,0,0,0,1.1378,1.1386,1.1452,1.1452,1.1453,1.1494,1.1491,1.1552,1.1495,1.1479,1.149,1.1488,1.1535,1.154,1.1556,1.1628,1.163,1.1572,1.1575,1.1577,1.1578,0,0,0,0,0,0,0,1.1374,1.1383,1.1477,1.1453,1.1453,1.1449,1.1455,1.1502,1.1517,1.148,1.1479,1.1486,1.1535,1.1552,1.1557,1.1631,1.1572,1.1576,1.1579,1.158,1.1759,1.1761,0,0,0,0,0,0,1.137,1.138,1.1476,1.1479,1.141,1.1452,1.1459,1.1483,1.1516,1.152,1.1487,1.1485,1.1545,1.1552,1.1559,1.1638,1.1577,1.1581,1.1583,1.1757,1.176,1.1762,0,0,0,0,0,0,1.1367,1.1378,1.1473,1.1429,1.1441,1.1457,1.1484,1.1485,1.1502,1.1522,1.1525,1.1502,1.1544,1.1553,1.1608,1.1639,1.1583,1.1587,1.1754,1.1758,1.1761,1.1796,0,0,0,0,0,0,1.1363,1.1377,1.1403,1.143,1.1443,1.1521,1.1486,1.1488,1.1509,1.1506,1.1536,1.154,1.1543,1.1602,1.1612,1.1644,1.159,1.1752,1.1756,1.176,1.1792,1.18,1.1807,0,0,0,0,0,1.1359,1.1411,1.1404,1.1416,1.1475,1.1523,1.1531,1.1533,1.1512,1.1537,1.155,1.1539,1.1634,1.1608,1.1619,1.1653,1.175,1.1755,1.1759,1.1789,1.1798,1.1806,0,0,0,0,0,0,1.1387,1.1414,1.1407,1.147,1.1494,1.1519,1.1552,1.1544,1.1575,1.1571,1.1573,1.158,1.1637,1.1651,1.162,1.1718,1.1689,1.1696,1.1707,1.1716,1.1724,1.1719,1.1594,0,0,0,0,0,1.1401,1.1437,1.1459,1.1512,1.1524,1.1536,1.1557,1.1557,1.1582,1.1593,1.161,1.1635,1.1671,1.1695,1.1729,1.1794,1.18,1.1823,1.183,1.1836,1.1842,1.1877,1.1887,1.1778,1.1778,1.1778,0,0,1.1429,1.1448,1.1471,1.1518,1.1537,1.1574,1.1545,1.1586,1.1614,1.1599,1.1652,1.1665,1.1694,1.1754,1.1781,1.1767,1.1874,1.1842,1.1847,1.185,1.1883,1.1893,1.1902,1.1781,1.1781,1.178,0,0,1.1499,1.1518,1.1564,1.1583,1.1612,1.1619,1.163,1.1657,1.1665,1.1717,1.1707,1.174,1.1802,1.1822,1.1841,1.1918,1.1908,1.1929,1.1968,1.2001,1.2009,1.2017,1.2044,1.2053,1.1936,1.1936,1.1936,0,1.1531,1.1587,1.1588,1.163,1.1651,1.1638,1.1684,1.1703,1.1742,1.1756,1.174,1.1816,1.1835,1.1899,1.1918,1.1934,1.1946,1.1926,1.2008,1.2016,1.2023,1.2048,1.2058,1.1938,1.1938,1.1938,1.1937,0,1.1624,1.1663,1.1696,1.1733,1.1757,1.1801,1.1809,1.1834,1.1831,1.184,1.1894,1.1915,1.1953,1.1968,1.1967,1.2032,1.2022,1.2007,1.1978,1.2035,1.2059,1.2069,1.1941,1.194,1.194,1.1939,0,0,1.1714,1.175,1.1763,1.1779,1.1809,1.1839,1.1882,1.1919,1.1939,1.1966,1.2002,1.2054,1.204,1.2061,1.2061,1.2091,1.2149,1.2072,1.2073,1.2085,1.2221,1.2232,1.2243,1.2143,1.2145,1.2146,1.2218,0,1.1786,1.1861,1.1863,1.1932,1.1967,1.1956,1.1993,1.2016,1.2025,1.2057,1.2067,1.2104,1.2083,1.2095,1.2124,1.2136,1.2177,1.2131,1.2176,1.2177,1.2168,1.2255,1.2267,1.2334,1.2228,1.2229,1.2231,0,1.188,1.1909,1.1981,1.2006,1.2021,1.2054,1.2087,1.2118,1.2143,1.2148,1.2171,1.2167,1.221,1.2179,1.2239,1.2208,1.2226,1.2235,1.2238,1.2241,1.2207,1.2261,1.2355,1.2365,1.2245,1.2244,1.2243,0,1.1937,1.1995,1.2045,1.2059,1.2089,1.2113,1.2127,1.215,1.2171,1.22,1.2214,1.2248,1.2266,1.2292,1.2297,1.2275,1.2357,1.2327,1.2361,1.2361,1.2378,1.2377,1.2476,1.2392,1.2392,1.2392,1.2392,0,1.2017,1.2061,1.2071,1.2101,1.215,1.2153,1.2201,1.2213,1.2234,1.2266,1.2259,1.229,1.2295,1.2327,1.2331,1.2379,1.2388,1.2393,1.2393,1.2393,1.2392,1.2404,1.2399,1.2394,1.2394,1.2393,1.2393,0,1.2089,1.2097,1.2151,1.2175,1.2182,1.2217,1.2237,1.2266,1.2275,1.2316,1.2326,1.2339,1.2376,1.2384,1.2428,1.2431,1.2488,1.2484,1.2479,1.2478,1.2512,1.2508,1.2621,1.2636,1.2543,1.2544,1.2545,0,1.2138,1.2172,1.2199,1.2221,1.2235,1.227,1.2291,1.2294,1.2317,1.2348,1.2373,1.241,1.2438,1.2498,1.2512,1.2545,1.2542,1.2579,1.2547,1.2545,1.2541,1.2538,1.2541,1.2585,1.2586,1.2587,1.2588,0,1.2226,1.2228,1.2259,1.2291,1.2317,1.2343,1.2367,1.2385,1.2392,1.2418,1.2455,1.2478,1.2522,1.2558,1.2591,1.2605,1.2597,1.2598,1.2607,1.2607,1.2602,1.2604,1.2495,1.2595,1.2594,1.2594,1.2593,1.2593,1.2287,1.2316,1.2339,1.2374,1.2393,1.2416,1.2444,1.2455,1.2487,1.2523,1.2523,1.2564,1.2588,1.2631,1.2647,1.2679,1.2667,1.2681,1.2685,1.2688,1.269,1.2598,1.2685,1.2685,1.2685,1.2685,1.2685,0,1.2372,1.2387,1.2419,1.2453,1.248,1.247,1.2497,1.252,1.2556,1.2579,1.2607,1.265,1.2684,1.27,1.2734,1.2756,1.2753,1.2765,1.2762,1.2766,1.27,1.2687,1.2766,1.2766,1.2766,1.2766,1.2766,1.2766,1.242,1.2468,1.2473,1.253,1.2544,1.2583,1.2599,1.262,1.2638,1.2686,1.2714,1.2724,1.2744,1.2779,1.281,1.2814,1.2826,1.2839,1.2841,1.2779,1.277,1.2762,1.2751,1.2842,1.2842,1.2904,1.2904,1.2905]},{"header":{"parameterUnit":"m.s-1","parameterCategory":1,"la1":30.2991,"la2":30.254,"lo1":-89.0895,"lo2":-89.0444,"dy":0.0017,"dx":0.0017,"nx":28,"ny":28,"refTime":"2025-11-15T03:00:00:Z","depth":0,"parameterNumber":3,"parameterNumberName":"V-component_of_WINDS"},"data":[0,0,0,0,0,0,0,0,0,0,0,0,0,0,0,0,0,0,0,0,0,0,0,0,0,0,0,0,0,0,0,0,0,0,0,0,0,0,0,0,0,0,0,0,0,0,0,0,0,0,0,0,0,0,0,0,0,0,2.0292,2.0292,0,2.0277,2.0277,2.0277,2.0228,2.0226,2.0225,2.0224,2.0208,2.0209,2.0209,0,0,0,0,0,0,0,0,0,0,0,0,0,2.0276,2.0276,2.0292,2.0292,2.0292,2.0277,2.0277,2.0277,2.0228,2.0226,2.0225,2.0224,2.0208,2.0209,2.0209,0,0,0,0,0,0,0,0,0,0,0,0,0,2.0274,2.0276,2.0292,2.0265,2.0263,2.0277,2.0277,2.0277,2.0228,2.0226,2.0225,2.0223,2.0208,2.0209,2.0209,2.0248,0,0,2.0212,2.0213,0,0,0,0,0,0,0,0,2.0274,2.0275,2.027,2.0267,2.0264,2.0253,2.0265,2.0267,2.0228,2.0241,2.0224,2.0222,2.0224,2.0224,2.0224,2.0247,2.0247,2.0212,2.0213,2.0213,2.0213,0,0,0,0,0,0,0,2.0274,2.0275,2.0286,2.0269,2.0266,2.0253,2.0251,2.0265,2.0242,2.024,2.0236,2.0235,2.0222,2.0224,2.0224,2.0246,2.0212,2.0213,2.0214,2.0214,2.0297,2.0299,0,0,0,0,0,0,2.0278,2.0275,2.0287,2.0286,2.0265,2.0255,2.0253,2.0258,2.0242,2.0238,2.0237,2.0233,2.0223,2.0223,2.0223,2.0264,2.0213,2.0214,2.0215,2.0296,2.0298,2.0299,0,0,0,0,0,0,2.0278,2.028,2.0287,2.028,2.0279,2.0257,2.0263,2.0259,2.026,2.0239,2.0235,2.0242,2.0222,2.0222,2.0242,2.0263,2.0214,2.0215,2.0294,2.0296,2.0298,2.035,0,0,0,0,0,0,2.0278,2.028,2.0295,2.028,2.028,2.0307,2.0265,2.026,2.0262,2.0257,2.0243,2.024,2.022,2.0241,2.0242,2.0264,2.0216,2.0291,2.0295,2.0298,2.0346,2.0354,2.036,0,0,0,0,0,2.0278,2.0311,2.0296,2.0298,2.0299,2.0308,2.0308,2.0285,2.0264,2.0278,2.0264,2.024,2.0261,2.0243,2.0245,2.0267,2.029,2.0294,2.0297,2.0343,2.0352,2.036,0,0,0,0,0,0,2.0329,2.0308,2.0292,2.0321,2.0317,2.03,2.0317,2.0297,2.0298,2.0293,2.0265,2.0262,2.0286,2.0278,2.0258,2.0302,2.0271,2.0276,2.0305,2.0314,2.0321,2.0321,2.0217,0,0,0,0,0,2.0344,2.0354,2.0335,2.0363,2.0361,2.034,2.0343,2.0326,2.032,2.0318,2.0306,2.0301,2.0306,2.031,2.0314,2.0345,2.034,2.0361,2.0368,2.0374,2.0378,2.0391,2.0399,2.0312,2.0312,2.0312,0,0,2.0374,2.0364,2.0372,2.0373,2.0367,2.0377,2.0339,2.0352,2.0358,2.032,2.0337,2.0329,2.0321,2.0346,2.0356,2.034,2.0401,2.0379,2.0384,2.0384,2.0396,2.0404,2.0411,2.0314,2.0314,2.0313,0,0,2.0434,2.0429,2.0449,2.0445,2.0437,2.0422,2.0427,2.0413,2.0406,2.0423,2.0393,2.0401,2.0411,2.0406,2.0405,2.0461,2.0438,2.0464,2.05,2.0513,2.052,2.0526,2.0543,2.055,2.0467,2.0468,2.0468,0,2.0472,2.0486,2.0463,2.0477,2.0477,2.0443,2.0463,2.046,2.0453,2.0454,2.0437,2.0447,2.044,2.0461,2.0475,2.0476,2.048,2.0464,2.0521,2.0527,2.0532,2.0548,2.0555,2.0471,2.047,2.047,2.047,0,2.0533,2.0543,2.0561,2.0555,2.0558,2.0575,2.0552,2.0558,2.0541,2.0527,2.0544,2.0534,2.0534,2.0538,2.0522,2.0557,2.0547,2.0527,2.0495,2.0544,2.0558,2.0565,2.0475,2.0474,2.0473,2.0472,0,0,2.0623,2.0604,2.061,2.0606,2.0595,2.0601,2.0617,2.0617,2.062,2.0617,2.0627,2.0637,2.0616,2.0615,2.0598,2.061,2.0652,2.0586,2.0586,2.0596,2.0687,2.0701,2.0709,2.0637,2.0638,2.0639,2.0686,0,2.0678,2.0702,2.068,2.0708,2.0716,2.0684,2.0696,2.069,2.0678,2.0683,2.0669,2.0675,2.0649,2.0648,2.0659,2.0644,2.0669,2.0641,2.0644,2.0645,2.0644,2.0717,2.0732,2.0777,2.0692,2.0693,2.0694,0,2.0744,2.0743,2.0771,2.0756,2.0758,2.077,2.0767,2.0773,2.0764,2.0754,2.0753,2.0731,2.0743,2.0715,2.073,2.0711,2.0711,2.0704,2.0706,2.0703,2.067,2.0713,2.0791,2.0797,2.0703,2.0703,2.0702,0,2.0803,2.0809,2.0826,2.0824,2.0808,2.0816,2.081,2.08,2.08,2.0798,2.0798,2.0797,2.0796,2.0796,2.0774,2.0756,2.0791,2.0761,2.0781,2.0782,2.0788,2.0788,2.0865,2.0793,2.0793,2.0793,2.0793,0,2.0864,2.0882,2.0852,2.0863,2.0881,2.0857,2.0875,2.0865,2.0857,2.0863,2.0837,2.0843,2.0816,2.082,2.0803,2.0817,2.0817,2.0808,2.0803,2.0809,2.081,2.0807,2.0802,2.0795,2.0794,2.0794,2.0794,0,2.0933,2.0914,2.093,2.0913,2.0909,2.0923,2.0907,2.0916,2.0902,2.0911,2.0911,2.089,2.0892,2.0872,2.0871,2.086,2.088,2.0871,2.0882,2.0878,2.0899,2.0896,2.0974,2.0982,2.0909,2.091,2.091,0,2.0971,2.0984,2.0968,2.0971,2.0965,2.097,2.097,2.0947,2.0948,2.0939,2.0947,2.0948,2.0947,2.0952,2.0936,2.0934,2.0923,2.0951,2.0923,2.0928,2.092,2.0918,2.0918,2.0956,2.0957,2.0958,2.0958,0,2.1041,2.1031,2.1033,2.1031,2.1032,2.1029,2.1024,2.1028,2.1002,2.1004,2.1007,2.1006,2.1004,2.1004,2.0999,2.0992,2.097,2.0967,2.0971,2.0976,2.0981,2.0976,2.0895,2.0965,2.0964,2.0964,2.0964,2.0963,2.1094,2.1103,2.1092,2.1094,2.1089,2.1085,2.1091,2.1078,2.1079,2.1076,2.1062,2.1066,2.1056,2.1047,2.1041,2.1043,2.103,2.1037,2.1038,2.1039,2.1042,2.0983,2.1043,2.1043,2.1042,2.1042,2.1042,0,2.116,2.1151,2.1154,2.1148,2.1149,2.113,2.1123,2.1125,2.1129,2.1122,2.1121,2.1123,2.1122,2.1106,2.1103,2.1108,2.1098,2.1108,2.1106,2.1104,2.1055,2.1051,2.1116,2.1116,2.1116,2.1116,2.1116,2.1116,2.1194,2.1207,2.1196,2.1205,2.1196,2.12,2.1198,2.1193,2.1187,2.119,2.1189,2.1179,2.1167,2.1163,2.1162,2.1157,2.1156,2.1169,2.116,2.1115,2.1107,2.11,2.1096,2.1169,2.1169,2.1208,2.1208,2.1208]}]]